Burbank, CA

7:07 AM PDT on June 18, 2018 (GMT -0700)
Burbank-Glendale-Pasadena

Weather History for KBUR - October, 2017

Change the Weather History Date:

Sunday, October 8, 2017

  Actual Average Record
Temperature  
Mean Temperature 70 °F 68 °F  
Max Temperature 80 °F 81 °F 102 °F (1996)
Min Temperature 59 °F 56 °F 44 °F (1975)
Degree Days  
Heating Degree Days 0 1  
Month to date heating degree days 0 8  
Since 1 July heating degree days 3 14  
Cooling Degree Days 5 4  
Month to date cooling degree days 49 39  
Year to date cooling degree days 1676 1170  
Growing Degree Days 19 (Base 50)    
Moisture  
Dew Point 51 °F    
Average Humidity 56    
Maximum Humidity 78    
Minimum Humidity 34    
Precipitation  
Precipitation 0.00 in 0.03 in 0.05 in (1974)
Month to date precipitation 0.00 0.19  
Year to date precipitation 9.62 13.06  
Sea Level Pressure  
Sea Level Pressure 29.72 in    
Wind  
Wind Speed 6 mph (SSE)    
Max Wind Speed 15 mph    
Max Gust Speed 18 mph    
Visibility 10 miles    
Events      
T = Trace of Precipitation, MM = Missing Value Source: NWS Daily Summary

Daily Weather History Graph

Daily Weather History Graph

Search for Another Location

Airport or City:

Astronomy

Oct. 08, 2017 Rise Set
Actual Time 6:53 AM PDT 6:27 PM PDT
Civil Twilight 6:28 AM PDT 6:52 PM PDT
Nautical Twilight 5:59 AM PDT 7:21 PM PDT
Astronomical Twilight 5:30 AM PDT 7:50 PM PDT
Moon 8:59 PM PDT (10/8) 9:55 AM PDT (10/8)
Length of Visible Light 12h 24m
Length of Day
11h 34m
Waning Gibbous, 88% of the Moon is Illuminated
Oct 8
Waning Gibbous
Oct 12
Last Quarter
Oct 19
New
Oct 27
First Quarter
Nov 3
Full

Hourly Weather History & Observations

Time (PDT) Temp. Dew Point Humidity Pressure Visibility Wind Dir Wind Speed Gust Speed Precip Events Conditions
12:53 AM 68.0 °F 43.0 °F 40% 29.70 in 10.0 mi Calm Calm - N/A   Clear
1:53 AM 66.9 °F 44.1 °F 44% 29.71 in 10.0 mi ENE 3.5 mph - N/A   Clear
2:53 AM 66.9 °F 37.9 °F 34% 29.70 in 10.0 mi East 5.8 mph - N/A   Clear
3:53 AM 64.0 °F 46.0 °F 52% 29.70 in 10.0 mi Calm Calm - N/A   Clear
4:53 AM 63.0 °F 35.1 °F 35% 29.69 in 10.0 mi Calm Calm - N/A   Clear
5:53 AM 59.0 °F 34.0 °F 39% 29.71 in 10.0 mi Calm Calm - N/A   Clear
6:53 AM 60.1 °F 34.0 °F 38% 29.71 in 10.0 mi Calm Calm - N/A   Clear
7:53 AM 61.0 °F 39.0 °F 44% 29.72 in 10.0 mi SSE 3.5 mph - N/A   Clear
8:53 AM 62.1 °F 50.0 °F 65% 29.74 in 9.0 mi SE 6.9 mph - N/A   Clear
9:46 AM 64.9 °F 55.9 °F 73% 29.78 in 6.0 mi SSE 4.6 mph - N/A   Haze
9:53 AM 64.9 °F 57.0 °F 75% 29.75 in 5.0 mi Variable 6.9 mph - N/A   Haze
10:53 AM 71.1 °F 55.9 °F 59% 29.74 in 9.0 mi Calm Calm - N/A   Clear
11:53 AM 73.9 °F 54.0 °F 50% 29.73 in 7.0 mi South 5.8 mph - N/A   Clear
12:53 PM 77.0 °F 50.0 °F 39% 29.71 in 10.0 mi South 4.6 mph - N/A   Clear
1:53 PM 79.0 °F 51.1 °F 38% 29.68 in 10.0 mi South 10.4 mph - N/A   Clear
2:53 PM 79.0 °F 52.0 °F 39% 29.67 in 10.0 mi South 13.8 mph - N/A   Clear
3:53 PM 77.0 °F 55.9 °F 48% 29.67 in 10.0 mi SSW 10.4 mph - N/A   Clear
4:53 PM 73.9 °F 57.0 °F 55% 29.68 in 10.0 mi South 10.4 mph - N/A   Clear
5:53 PM 71.1 °F 57.0 °F 61% 29.69 in 10.0 mi South 10.4 mph - N/A   Clear
6:53 PM 69.1 °F 57.9 °F 68% 29.70 in 10.0 mi South 5.8 mph - N/A   Clear
7:53 PM 66.9 °F 57.9 °F 73% 29.70 in 10.0 mi South 5.8 mph - N/A   Clear
8:53 PM 66.0 °F 57.9 °F 75% 29.72 in 10.0 mi SE 8.1 mph - N/A   Clear
9:53 PM 64.0 °F 57.0 °F 78% 29.73 in 10.0 mi SE 6.9 mph - N/A   Clear
10:30 PM 64.0 °F 57.0 °F 78% 29.78 in 10.0 mi SE 6.9 mph - N/A   Mostly Cloudy
10:53 PM 64.0 °F 57.0 °F 78% 29.76 in 10.0 mi SE 8.1 mph - N/A   Overcast
11:49 PM 64.4 °F 57.2 °F 77% 29.80 in 10.0 mi SSE 5.8 mph - N/A   Overcast
11:53 PM 64.0 °F 57.0 °F 78% 29.76 in 10.0 mi SSE 5.8 mph - N/A   Overcast